Voltar ao catálogo

MUBLCOM

AtivoComunicaçõesPO
NORAD 25736·PAYLOAD·🇺🇸 United States

Lançado May 18, 1999 de Vandenberg Space Force Base

Loading…

Próximas Passagens (próximas 24 horas)

TLE

AtualizadoSource: Space-Track

Época: Sep 14, 2026, 01:07 UTC

1 25736U 99026B   26257.04701464  .00000801  00000-0  18573-3 0  9993
2 25736  97.6743 110.0150 0003918 333.4157  26.6842 14.57358710442780

Acompanhe MUBLCOM em tempo real com AllMySat

Download on the App Store